Location: Ostrava
(49.8330°N, 18.2830°E)
Time: 01:57:46
(UTC+02:00)

Cosmos 2219 Rocket - Visible Passes

Search period start: 22 October 2014 00:00
Search period end: 31 October 2014 23:00
Orbit: 827 x 848 km, 71.0° (Epoch: 21 October)

Date Brightness Start Highest point End Pass type
(mag) Time Alt. Az. Time Alt. Az. Time Alt. Az.
22 Oct 4.8 02:41:02 15° NNE 02:42:17 16° NNE 02:45:37 10° ENE visible
22 Oct 2.9 04:22:51 14° NNW 04:27:39 52° NE 04:33:11 10° SE visible
22 Oct 2.9 06:06:27 10° NW 06:11:22 31° WSW 06:16:16 10° SSW visible
22 Oct 2.5 19:17:16 10° S 19:22:32 43° ESE 19:27:12 13° NE visible
22 Oct 3.4 21:01:18 10° WSW 21:06:34 39° NW 21:09:00 27° N visible
22 Oct 5.0 22:49:44 10° NW 22:50:48 12° NW 22:50:48 12° NW visible
23 Oct 4.8 02:26:49 15° NE 02:26:49 15° NE 02:29:08 10° ENE visible
23 Oct 3.0 04:08:40 28° N 04:11:22 50° NE 04:16:52 10° SE visible
23 Oct 2.8 05:50:31 12° NW 05:55:09 33° WSW 06:00:09 10° SSW visible
23 Oct 2.6 19:01:06 10° S 19:06:18 40° ESE 19:11:33 10° NE visible
23 Oct 3.3 20:44:57 10° WSW 20:50:16 42° NW 20:53:57 19° N visible
23 Oct 4.9 22:33:13 10° NW 22:35:43 13° NNW 22:35:43 13° NNW visible
24 Oct 3.1 03:54:43 46° NE 03:55:05 47° NE 04:00:32 10° SE visible
24 Oct 2.7 05:36:36 25° WNW 05:38:56 35° WSW 05:44:01 10° S visible
24 Oct 2.7 18:44:57 10° S 18:50:04 38° ESE 18:55:15 10° NE visible
24 Oct 3.2 20:28:37 10° SW 20:33:59 44° NW 20:38:37 14° NNE visible
24 Oct 4.8 22:16:42 10° WNW 22:19:32 14° NNW 22:20:22 13° NNW visible
25 Oct 3.7 03:40:54 31° E 03:40:54 31° E 03:44:12 10° SE visible
25 Oct 2.6 05:22:46 38° WSW 05:22:46 38° WSW 05:27:52 10° S visible
25 Oct 2.8 18:28:48 10° S 18:33:51 35° ESE 18:38:56 10° NE visible
25 Oct 3.1 20:12:17 10° SW 20:17:42 46° NW 20:23:05 10° NNE visible
25 Oct 4.8 22:00:11 10° WNW 22:03:11 14° NNW 22:04:50 13° N visible
26 Oct 4.6 02:27:05 14° ESE 02:27:05 14° ESE 02:27:52 10° ESE visible
26 Oct 3.3 04:08:57 27° SSW 04:08:57 27° SSW 04:11:43 10° S visible
26 Oct 2.9 17:12:40 10° SSE 17:17:37 33° ESE 17:22:38 10° NE visible
26 Oct 3.0 18:55:57 10° SW 19:01:24 49° NW 19:06:56 10° NNE visible
26 Oct 4.8 20:43:42 10° WNW 20:46:50 15° NNW 20:49:10 12° N visible
27 Oct 4.3 03:55:03 13° S 03:55:03 13° S 03:55:33 10° S visible
27 Oct 2.9 18:39:38 10° SW 18:45:07 52° NW 18:50:41 10° NNE visible
27 Oct 4.8 20:27:12 10° WNW 20:30:30 15° NNW 20:33:24 11° N visible
28 Oct 2.9 18:23:19 10° SW 18:28:51 55° NW 18:34:26 10° NNE visible
28 Oct 4.7 20:10:43 10° WNW 20:14:09 16° NNW 20:17:35 10° N visible
29 Oct 2.8 18:07:01 10° SW 18:12:34 59° NW 18:18:11 10° NNE visible
29 Oct 4.7 19:54:15 10° WNW 19:57:48 17° NNW 20:01:23 10° N visible
30 Oct 2.7 17:50:42 10° SW 17:56:17 62° WNW 18:01:56 10° NNE visible
30 Oct 4.6 19:37:46 10° WNW 19:41:28 17° NNW 19:45:11 10° N visible
31 Oct 2.6 17:34:25 10° SW 17:40:01 66° WNW 17:45:41 10° NNE visible
31 Oct 4.6 19:21:19 10° WNW 19:25:08 18° NW 19:28:58 10° N visible
